Weather History for Challis, ID

Change the Weather History Date:

Friday, November 4, 2011

  Actual Average Record
Temperature  
Mean Temperature 35 °F 36 °F  
Max Temperature 47 °F 48 °F 68 °F (1945)
Min Temperature 22 °F 24 °F 0 °F (1935)
Degree Days  
Heating Degree Days 30 29  
Month to date heating degree days 136 112  
Since 1 July heating degree days 858 1106  
Cooling Degree Days 0 0  
Month to date cooling degree days 0 0  
Year to date cooling degree days 196 248  
Moisture  
Dew Point 20 °F    
Average Humidity 54    
Maximum Humidity 71    
Minimum Humidity 37    
Precipitation  
Precipitation 0.04 in 0.02 in 0.40 in (1968)
Month to date precipitation 0.04 0.08  
Year to date precipitation 6.06 8.88  
Sea Level Pressure  
Sea Level Pressure 29.57 in    
Wind  
Wind Speed 6 mph (NW)    
Max Wind Speed 12 mph    
Max Gust Speed 15 mph    
Visibility 9 miles    
Events Snow    
T = Trace of Precipitation, MM = Missing Value Source: NWS Daily Summary

Daily Weather History Graph

Daily Weather History Graph

Search for Another Location

Airport:

Trip Planner

Search our weather history database for the weather conditions in past years. The results will help you decide how hot, cold, wet, or windy it might be!

Date:

Astronomy

Nov. 04, 2011 Rise Set
Actual Time 8:18 AM MDT 6:22 PM MDT
Civil Twilight 7:47 AM MDT 6:52 PM MDT
Nautical Twilight 7:13 AM MDT 7:27 PM MDT
Astronomical Twilight 6:39 AM MDT 8:01 PM MDT
Moon 3:26 PM MDT (11/4) 2:21 AM MDT (11/4)
Length of Visible Light 11h 05m
Length of Day
10h 03m
Waxing Gibbous, 70% of the Moon is Illuminated
Nov 4
Waxing Gibbous
Nov 10
Full
Nov 18
Last Quarter
Nov 24
New
Dec 2
First Quarter

Hourly Weather History & Observations

Time (MDT) Temp. Windchill Dew Point Humidity Pressure Visibility Wind Dir Wind Speed Gust Speed Precip Events Conditions
12:55 AM 32.0 °F - 14.0 °F 48% 29.62 in 10.0 mi Calm Calm - N/A   Clear
2:55 AM 26.1 °F 21.9 °F 14.0 °F 60% 29.59 in 10.0 mi South 3.5 mph - N/A   Clear
3:55 AM 25.0 °F - 12.9 °F 60% 29.57 in 10.0 mi Calm Calm - N/A   Clear
4:55 AM 21.9 °F 17.2 °F 12.0 °F 66% 29.57 in 10.0 mi South 3.5 mph - N/A   Clear
5:55 AM 24.1 °F - 12.0 °F 60% 29.57 in 10.0 mi Calm Calm - N/A   Clear
6:55 AM 21.9 °F - 14.0 °F 72% 29.58 in 10.0 mi Calm Calm - N/A   Partly Cloudy
7:55 AM 24.1 °F - 12.9 °F 62% 29.58 in 10.0 mi Calm Calm - N/A   Partly Cloudy
8:55 AM 25.0 °F - 16.0 °F 69% 29.59 in 10.0 mi Calm Calm - N/A   Mostly Cloudy
9:55 AM 28.0 °F - 18.0 °F 66% 29.58 in 10.0 mi Calm Calm - N/A   Mostly Cloudy
10:55 AM 34.0 °F 31.0 °F 16.0 °F 48% 29.56 in 10.0 mi NNW 3.5 mph - N/A   Overcast
11:55 AM 39.0 °F - 16.0 °F 39% 29.53 in 10.0 mi Calm Calm - N/A   Scattered Clouds
12:55 PM 43.0 °F 37.2 °F 19.9 °F 40% 29.51 in 10.0 mi SSW 10.4 mph 16.1 mph N/A   Overcast
1:55 PM 46.9 °F - 24.1 °F 41% 29.49 in 10.0 mi SSW 18.4 mph - N/A   Mostly Cloudy
2:55 PM 46.9 °F - 21.9 °F 37% 29.49 in 10.0 mi SSW 17.3 mph 23.0 mph N/A   Clear
4:55 PM 45.0 °F 39.7 °F 21.0 °F 39% 29.52 in 10.0 mi WSW 10.4 mph - N/A   Overcast
5:55 PM 42.1 °F 37.7 °F 21.0 °F 43% 29.55 in 10.0 mi West 6.9 mph - N/A   Overcast
6:55 PM 37.0 °F 33.3 °F 23.0 °F 57% 29.60 in 10.0 mi NNW 4.6 mph - N/A   Overcast
7:55 PM 37.9 °F 32.1 °F 23.0 °F 55% 29.60 in 10.0 mi NNE 8.1 mph - N/A   Overcast
8:55 PM 37.0 °F 31.6 °F 24.1 °F 59% 29.61 in 10.0 mi NNE 6.9 mph - N/A   Overcast
9:55 PM 37.0 °F 34.5 °F 25.0 °F 62% 29.62 in 9.0 mi NE 3.5 mph - 0.00 in Snow Light Snow
10:55 PM 34.0 °F 26.6 °F 25.0 °F 70% 29.61 in 10.0 mi North 9.2 mph - 0.00 in   Overcast
11:48 PM 32.0 °F 26.4 °F 26.6 °F 80% 29.61 in 3.0 mi North 5.8 mph - 0.00 in Snow Light Snow
11:53 PM 30.2 °F 25.4 °F 28.4 °F 93% 29.61 in 1.8 mi North 4.6 mph - 0.00 in Snow Light Snow
11:55 PM 30.9 °F 24.3 °F 28.0 °F 89% 29.62 in 1.5 mi North 6.9 mph - 0.00 in Snow Light Snow